Austin, TX

12:33 PM CDT on June 22, 2018 (GMT -0500)
Austin

Weather History for KATT - October, 2017

Change the Weather History Date:

Friday, October 13, 2017

  Actual Average Record
Temperature  
Mean Temperature 80 °F 72 °F  
Max Temperature 90 °F 83 °F 97 °F (1991)
Min Temperature 69 °F 61 °F 40 °F (1946)
Degree Days  
Heating Degree Days 0 1  
Month to date heating degree days 0 2  
Since 1 July heating degree days 0 4  
Cooling Degree Days 15 8  
Month to date cooling degree days 166 119  
Year to date cooling degree days 3445 2963  
Growing Degree Days 30 (Base 50)    
Moisture  
Dew Point 68 °F    
Average Humidity 74    
Maximum Humidity 97    
Minimum Humidity 50    
Precipitation  
Precipitation 0.00 in 0.13 in 6.95 in (1925)
Month to date precipitation 0.65 1.53  
Year to date precipitation 29.18 26.61  
Snow  
Snow 0.00 in - - ()
Month to date snowfall 0.0  
Since 1 July snowfall 0.0  
Since 1 September snowfall 0.0  
Snow Depth 0.00 in    
Sea Level Pressure  
Sea Level Pressure 30.05 in    
Wind  
Wind Speed 3 mph (SSE)    
Max Wind Speed 10 mph    
Max Gust Speed 17 mph    
Visibility 8 miles    
Events      
T = Trace of Precipitation, MM = Missing Value Source: NWS Daily Summary

Daily Weather History Graph

Daily Weather History Graph

Search for Another Location

Airport or City:

Astronomy

Oct. 13, 2017 Rise Set
Actual Time 7:32 AM CDT 7:01 PM CDT
Civil Twilight 7:07 AM CDT 7:26 PM CDT
Nautical Twilight 6:40 AM CDT 7:53 PM CDT
Astronomical Twilight 6:12 AM CDT 8:21 PM CDT
Moon 1:25 AM CDT (10/13) 3:20 PM CDT (10/13)
Length of Visible Light 12h 18m
Length of Day
11h 29m
Last Quarter, 37% of the Moon is Illuminated
Oct 13
Last Quarter
Oct 19
New
Oct 27
First Quarter
Nov 4
Full
Nov 10
Last Quarter

Hourly Weather History & Observations

Time (CDT) Temp. Heat Index Dew Point Humidity Pressure Visibility Wind Dir Wind Speed Gust Speed Precip Events Conditions
12:51 AM 73.0 °F - 66.0 °F 79% 30.03 in 10.0 mi Calm Calm - N/A   Clear
1:51 AM 71.1 °F - 66.0 °F 84% 30.03 in 10.0 mi Calm Calm - N/A   Clear
2:51 AM 71.1 °F - 66.0 °F 84% 30.03 in 10.0 mi Calm Calm - N/A   Clear
3:51 AM 70.0 °F - 66.0 °F 87% 30.03 in 10.0 mi Calm Calm - N/A   Clear
4:51 AM 70.0 °F - 66.0 °F 87% 30.04 in 9.0 mi Calm Calm - N/A   Clear
5:32 AM 70.0 °F - 66.9 °F 90% 30.08 in 8.0 mi Calm Calm - N/A   Scattered Clouds
5:41 AM 70.0 °F - 66.9 °F 90% 30.08 in 7.0 mi Calm Calm - N/A   Mostly Cloudy
5:51 AM 70.0 °F - 68.0 °F 93% 30.04 in 6.0 mi Calm Calm - N/A   Overcast
6:18 AM 71.1 °F - 69.1 °F 93% 30.08 in 1.8 mi Calm Calm - N/A   Overcast
6:31 AM 70.0 °F - 69.1 °F 97% 30.09 in 0.8 mi Calm Calm - N/A   Mist
6:39 AM 71.1 °F - 69.1 °F 93% 30.09 in 1.8 mi Calm Calm - N/A   Overcast
6:44 AM 71.1 °F - 69.1 °F 93% 30.09 in 3.0 mi Variable 3.5 mph - N/A   Overcast
6:51 AM 71.1 °F - 70.0 °F 96% 30.06 in 4.0 mi Calm Calm - N/A   Overcast
7:17 AM 72.0 °F - 70.0 °F 93% 30.09 in 4.0 mi Calm Calm - N/A   Overcast
7:51 AM 72.0 °F - 70.0 °F 93% 30.07 in 5.0 mi Variable 3.5 mph - N/A   Overcast
8:51 AM 73.9 °F - 70.0 °F 87% 30.09 in 7.0 mi Variable 3.5 mph - N/A   Overcast
9:51 AM 78.1 °F - 70.0 °F 76% 30.10 in 10.0 mi Calm Calm - N/A   Mostly Cloudy
10:06 AM 78.1 °F - 70.0 °F 76% 30.13 in 10.0 mi Variable 4.6 mph - N/A   Scattered Clouds
10:51 AM 80.1 °F 83.2 °F 70.0 °F 71% 30.10 in 10.0 mi Variable 3.5 mph - N/A   Partly Cloudy
11:51 AM 82.9 °F 87.0 °F 70.0 °F 65% 30.09 in 10.0 mi Variable 5.8 mph - N/A   Partly Cloudy
12:51 PM 84.9 °F 89.4 °F 70.0 °F 61% 30.07 in 10.0 mi Variable 6.9 mph - N/A   Scattered Clouds
1:51 PM 88.0 °F 91.4 °F 68.0 °F 51% 30.04 in 10.0 mi Variable 5.8 mph - N/A   Partly Cloudy
2:51 PM 89.1 °F 92.9 °F 68.0 °F 50% 30.01 in 10.0 mi Variable 5.8 mph - N/A   Clear
3:51 PM 90.0 °F 93.6 °F 68.0 °F 48% 30.00 in 10.0 mi Variable 5.8 mph - N/A   Clear
4:51 PM 89.1 °F 92.9 °F 68.0 °F 50% 29.99 in 10.0 mi Variable 4.6 mph - N/A   Clear
5:51 PM 87.1 °F 89.9 °F 66.9 °F 51% 29.99 in 10.0 mi South 5.8 mph - N/A   Clear
6:51 PM 84.0 °F 86.5 °F 66.9 °F 56% 29.99 in 10.0 mi South 4.6 mph - N/A   Clear
7:51 PM 82.0 °F 84.5 °F 66.9 °F 60% 30.00 in 10.0 mi SSE 3.5 mph - N/A   Clear
8:51 PM 81.0 °F 83.8 °F 68.0 °F 65% 30.02 in 10.0 mi South 3.5 mph - N/A   Clear
9:51 PM 80.1 °F 82.7 °F 68.0 °F 67% 30.03 in 10.0 mi SSE 3.5 mph - N/A   Clear
10:51 PM 79.0 °F - 69.1 °F 72% 30.03 in 10.0 mi Calm Calm - N/A   Clear
11:51 PM 77.0 °F - 69.1 °F 76% 30.04 in 10.0 mi SE 3.5 mph - N/A   Clear